Lid_Strength_Index
3 4 3 3 3 2 2 2 1 1 1 1 1 1 1 0 0 0 0 0 0 0 0 -0 -1 -1 -1 -1 -1 -1 -1 -0 -0
3 3 3 3 2 2 2 2 2 1 1 1 1 1 1 1 0 0 0 -0 -0 0 -1 -0 -1 -1 -1 -1 -1 -1 -1 -0 -0
3 3 3 3 3 2 2 2 1 1 1 1 1 1 1 1 1 0 0 0 0 -0 -0 -1 -1 -1 -1 -1 -1 -1 -1 -0 -1
3 3 3 3 3 2 2 1 1 1 1 1 1 1 1 1 1 0 0 0 0 0 -0 -1 -0 -1 -0 -0 -0 -1 -0 -0 -1
3 3 2 2 2 2 2 2 1 2 1 1 1 1 1 1 1 1 1 1 0 -0 0 -0 -0 -0 -0 -0 -0 -0 -0 0 -0
3 2 2 2 2 2 2 2 2 1 1 1 1 1 1 1 1 1 1 1 0 0 0 0 -0 -0 0 0 0 0 -0 -0 0
4 3 2 2 2 2 2 2 2 2 1 1 1 1 1 1 1 1 1 1 0 0 0 0 0 0 0 0 -0 -0 -0 0 0
4 4 3 2 3 2 2 2 2 2 1 1 1 1 1 1 1 1 1 1 1 0 0 0 0 0 0 0 0 0 0 0 0
3 3 3 3 2 2 2 2 2 1 2 1 1 1 2 1 1 1 1 1 1 1 1 1 0 1 1 1 1 3 3 1 0
3 3 3 3 2 2 2 2 1 2 1 1 1 1 1 1 1 1 1 1 1 1 1 1 1 1 1 1 0 5 5 3 0
3 3 2 3 3 2 1 1 1 1 1 1 2 2 2 1 1 1 1 1 1 1 1 1 1 1 1 1 1 6 6 4 0
2 2 2 2 1 2 1 1 1 1 1 1 2 2 2 2 1 1 1 2 2 1 1 1 1 1 1 1 1 7 8 5 0
2 2 1 1 1 1 1 1 1 1 2 2 2 2 2 1 1 1 2 1 1 1 1 1 1 1 1 2 1 6 9 6 1
2 2 2 1 1 1 1 1 1 1 2 2 2 1 1 1 1 1 1 1 1 1 1 1 1 2 1 1 1 1 10 10 1
3 3 2 2 2 2 1 1 1 2 2 1 1 1 1 1 1 1 1 1 1 1 1 2 2 2 2 2 1 5 9 10 9
3 3 2 2 2 1 1 1 1 2 2 1 1 1 1 1 1 1 1 2 2 2 2 2 2 2 3 2 1 1 7 5 8
3 3 3 2 2 2 2 2 2 1 1 1 1 2 2 1 2 2 1 1 1 2 2 2 2 3 3 2 1 1 1 4 7
3 3 3 2 3 3 3 2 2 1 1 1 2 2 2 2 2 2 2 1 2 2 1 3 2 2 2 2 2 2 5 5 4
3 4 3 3 3 3 3 3 3 2 1 1 1 2 2 2 2 2 2 2 3 15 16 17 17 14 7 2 13 14 15 15 14
5 4 4 3 3 3 2 2 2 2 1 1 2 2 2 2 3 2 2 2 3 4 8 15 17 17 17 16 15 16 16 16 16